DW1415 Weather Reports


time (UTC)temp
C
wind
direction
speed
KPH
gust
KPH
rain 1hr
cm
rain 24hr
cm
rain mn
cm
humidity
%
barometer
mb
20260504031504 12 15 0.0 3.2 0.00 0.00 0.00 43 1010.5
20260504030002 12 20 0.0 3.2 0.00 0.00 0.00 42 1010.5
20260504025502 12 11 1.6 4.8 0.00 0.00 0.00 41 1010.4
20260504025003 13 357 3.2 4.8 0.00 0.00 0.00 41 1010.4
20260504024502 13 12 3.2 8.0 0.00 0.00 0.00 40 1010.5
20260504023503 13 4 3.2 4.8 0.00 0.00 0.00 40 1010.5
20260504022002 13 10 1.6 4.8 0.00 0.00 0.00 40 1010.5
20260504021503 13 6 3.2 4.8 0.00 0.00 0.00 39 1010.5
20260504015502 13 10 1.6 4.8 0.00 0.00 0.00 39 1010.5
20260504015003 13 355 1.6 3.2 0.00 0.00 0.00 39 1010.4
20260504013502 13 42 0.0 0.0 0.00 0.00 0.00 39 1010.2
20260504013004 13 42 0.0 0.0 0.00 0.00 0.00 39 1010.2
20260504012502 13 42 0.0 0.0 0.00 0.00 0.00 39 1010.2
20260504011503 13 42 0.0 1.6 0.00 0.00 0.00 38 1010.1
20260504011004 13 42 0.0 0.0 0.00 0.00 0.00 38 1010.1
20260504010003 13 42 0.0 0.0 0.00 0.00 0.00 38 1009.9
20260504005002 13 42 0.0 0.0 0.00 0.00 0.00 36 1009.8
20260504003504 14 42 0.0 0.0 0.00 0.00 0.00 36 1009.7
20260504003003 14 42 0.0 0.0 0.00 0.00 0.00 35 1009.6
20260504002003 15 42 0.0 0.0 0.00 0.00 0.00 34 1009.4
20260504001003 15 58 0.0 3.2 0.00 0.00 0.00 34 1009.2
20260504000502 15 60 0.0 1.6 0.00 0.00 0.00 34 1009.1
20260504000002 15 60 0.0 0.0 0.00 0.00 0.00 33 1009.1
20260503235003 15 60 1.6 4.8 0.00 0.00 0.00 32 1009.0
20260503234004 15 327 1.6 4.8 0.00 0.00 0.00 31 1008.8
20260503233503 15 264 1.6 4.8 0.00 0.00 0.00 31 1008.8
20260503233003 15 50 3.2 4.8 0.00 0.00 0.00 31 1008.6
20260503232504 15 193 1.6 4.8 0.00 0.00 0.00 32 1008.6
20260503231003 16 345 1.6 4.8 0.00 0.00 0.00 30 1008.6
20260503230502 16 23 1.6 3.2 0.00 0.00 0.00 30 1008.6
20260503224503 16 339 3.2 8.0 0.00 0.00 0.00 29 1008.5
20260503224003 16 43 3.2 11.3 0.00 0.00 0.00 29 1008.4
20260503220503 16 238 3.2 11.3 0.00 0.00 0.00 28 1008.4
20260503220002 16 210 4.8 12.9 0.00 0.00 0.00 28 1008.4
20260503215503 16 88 3.2 9.7 0.00 0.00 0.00 29 1008.5
20260503214503 16 241 3.2 9.7 0.00 0.00 0.00 28 1008.4
20260503214002 16 47 4.8 14.5 0.00 0.00 0.00 29 1008.5
20260503213502 16 206 4.8 11.3 0.00 0.00 0.00 28 1008.5
20260503213003 16 188 3.2 9.7 0.00 0.00 0.00 28 1008.5
20260503212503 16 68 8.0 14.5 0.00 0.00 0.00 29 1008.4
20260503210003 15 55 4.8 12.9 0.00 0.00 0.00 30 1008.3
20260503205504 15 72 4.8 11.3 0.00 0.00 0.00 30 1008.3
20260503205002 15 327 4.8 11.3 0.00 0.00 0.00 29 1008.3
20260503204003 15 329 4.8 12.9 0.00 0.00 0.00 30 1008.4
20260503202503 15 357 4.8 14.5 0.00 0.00 0.00 30 1008.5
20260503200503 15 344 4.8 14.5 0.00 0.00 0.00 31 1008.6
20260503200003 15 177 3.2 9.7 0.00 0.00 0.00 32 1008.6
20260503195504 15 284 4.8 12.9 0.00 0.00 0.00 30 1008.7
20260503194503 15 82 4.8 12.9 0.00 0.00 0.00 31 1008.8
20260503193503 15 21 6.4 16.1 0.00 0.00 0.00 31 1008.9
20260503193003 15 72 4.8 14.5 0.00 0.00 0.00 32 1008.9
20260503191003 14 62 6.4 14.5 0.00 0.00 0.00 33 1009.0
20260503185502 14 113 4.8 12.9 0.00 0.00 0.00 35 1009.0
20260503185002 15 61 4.8 8.0 0.00 0.00 0.00 34 1009.2
20260503184502 14 1 3.2 4.8 0.00 0.00 0.00 35 1009.3
20260503183503 13 318 3.2 8.0 0.00 0.00 0.00 36 1009.3
20260503182505 13 310 4.8 14.5 0.00 0.00 0.00 35 1009.4
20260503180003 13 210 3.2 12.9 0.00 0.00 0.00 40 1009.6
20260503175503 13 353 4.8 19.3 0.00 0.00 0.00 40 1009.8
20260503175004 12 350 3.2 9.7 0.00 0.00 0.00 39 1009.6
20260503174003 12 204 3.2 9.7 0.00 0.00 0.00 41 1009.7
20260503173003 12 61 4.8 9.7 0.00 0.00 0.00 40 1009.7
20260503172504 12 44 4.8 14.5 0.00 0.00 0.00 40 1009.8
20260503172003 12 102 4.8 12.9 0.00 0.00 0.00 41 1010.0
20260503171503 12 258 4.8 9.7 0.00 0.00 0.00 41 1009.8
20260503171003 12 45 3.2 9.7 0.00 0.00 0.00 41 1009.8
20260503151003 11 300 4.8 11.3 0.00 0.00 0.00 37 1010.2
20260503150503 11 158 3.2 11.3 0.00 0.00 0.00 37 1010.2
20260503131004 8 206 3.2 8.0 0.00 0.00 0.00 54 1010.3
20260503110503 7 176 1.6 4.8 0.00 0.00 0.00 58 1009.7
20260503090503 8 279 1.6 9.7 0.00 0.03 0.00 54 1008.5
20260503081503 8 44 0.0 4.8 0.00 0.03 0.00 53 1008.5
20260503080502 8 177 1.6 4.8 0.00 0.03 0.00 52 1008.4
20260503072503 8 208 3.2 4.8 0.00 0.03 0.00 50 1008.4
20260503071503 9 5 1.6 4.8 0.00 0.03 0.00 50 1008.4
20260503055002 10 106 1.6 4.8 0.00 0.03 0.00 45 1008.6
20260503053503 10 191 1.6 4.8 0.00 0.03 0.00 44 1008.7
20260503053003 10 152 1.6 4.8 0.00 0.03 0.00 44 1008.7
20260503051504 11 194 3.2 9.7 0.00 0.03 0.00 43 1009.0
20260503045503 11 54 1.6 8.0 0.00 0.03 0.00 43 1009.2
20260503044003 11 14 1.6 4.8 0.00 0.03 0.00 43 1009.1
20260503043003 11 181 3.2 9.7 0.00 0.03 0.00 42 1009.0
20260503042503 11 191 4.8 11.3 0.00 0.03 0.00 42 1009.1
20260503042003 11 197 3.2 12.9 0.00 0.03 0.00 42 1009.2
20260503041004 11 242 3.2 12.9 0.00 0.03 0.00 42 1009.3
20260503040503 11 197 3.2 8.0 0.00 0.03 0.00 42 1009.3
20260503034505 11 213 6.4 11.3 0.00 0.03 0.03 40 1009.1